Date,TemperatureHighF,TemperatureAvgF,TemperatureLowF,DewpointHighF,DewpointAvgF,DewpointLowF,HumidityHigh,HumidityAvg,HumidityLow,PressureMaxIn,PressureMinIn,WindSpeedMaxMPH,WindSpeedAvgMPH,GustSpeedMaxMPH,PrecipitationSumIn
2013-2-1,28.4,25.1,19.3,18.8,11.9,6.8,73,57,44,30.29,29.78,31,12,31,0.00
2013-2-2,25.8,20.8,14.2,22.3,12.7,5.9,92,72,55,30.31,30.00,15,5,15,0.07
2013-2-3,29.9,25.6,18.6,26.4,22.1,14.5,93,87,66,30.00,29.79,23,3,23,0.01
2013-2-4,31.0,25.4,19.3,22.3,15.1,10.9,79,65,54,30.03,29.89,22,6,22,0.00
2013-2-5,34.1,30.8,28.0,29.4,26.8,22.3,92,85,79,29.92,29.84,5,1,5,0.00
2013-2-6,37.7,31.1,22.4,31.5,25.2,18.4,95,80,62,30.33,29.90,17,5,17,0.00
2013-2-7,34.4,29.6,22.3,23.6,18.6,15.2,82,64,45,30.44,30.22,13,2,13,0.00
2013-2-8,36.9,34.1,30.6,34.2,31.0,23.6,95,89,71,30.22,29.69,25,6,25,0.12
2013-2-9,31.9,27.4,23.1,25.7,18.7,14.8,82,70,61,30.37,29.82,34,16,35,0.00
2013-2-10,40.5,29.8,16.7,25.9,16.3,9.6,78,58,37,30.46,30.25,12,1,12,0.00
2013-2-11,45.3,39.3,33.0,45.3,37.2,25.3,100,92,69,30.25,29.64,0,0,0,0.36
2013-2-12,44.2,39.5,35.9,35.3,28.5,26.0,82,65,55,29.97,29.76,0,0,0,0.00
2013-2-13,38.8,35.4,32.3,32.0,27.4,26.0,95,73,67,29.97,29.66,6,0,6,0.07
2013-2-14,45.1,36.2,31.1,33.3,30.2,27.5,96,80,52,29.98,29.70,14,4,14,0.01
2013-2-15,54.9,41.1,33.0,38.1,33.1,28.6,93,75,48,30.00,29.89,17,5,17,0.25
2013-2-16,34.6,31.9,28.9,31.8,26.9,16.3,96,82,59,29.97,29.78,12,3,12,0.01
2013-2-17,29.7,25.8,20.6,20.4,12.1,5.4,74,56,42,30.11,29.76,31,16,31,0.00
2013-2-18,36.7,26.7,17.9,19.8,12.5,6.7,69,55,38,30.32,30.11,23,8,23,0.00
2013-2-19,40.6,35.9,31.1,38.5,29.7,18.1,94,79,58,30.14,29.66,16,7,16,0.14
2013-2-20,34.4,27.6,22.6,25.3,15.8,11.5,69,61,53,30.06,29.77,25,14,25,0.00
2013-2-21,34.4,27.9,22.4,19.1,15.9,12.1,68,60,52,30.30,30.04,24,12,24,0.00
2013-2-22,34.4,29.6,23.4,29.7,21.9,16.5,85,73,62,30.36,30.20,8,3,8,0.00
2013-2-23,43.3,39.0,33.3,41.9,37.5,29.6,96,94,85,30.21,29.78,6,1,6,0.00
2013-2-24,42.9,37.4,30.4,39.1,30.8,21.5,96,78,58,30.04,29.75,29,10,29,0.00
2013-2-25,45.8,36.1,27.9,30.7,25.5,21.3,78,66,50,30.20,30.03,15,4,15,0.00
2013-2-26,43.1,36.9,28.8,35.7,30.4,23.1,92,78,63,30.21,29.65,15,4,15,0.17
2013-2-27,50.2,42.9,37.5,43.3,38.2,33.6,95,84,66,29.66,29.47,22,6,22,0.05
2013-2-28,45.4,39.9,34.1,37.3,32.6,28.0,92,76,55,29.65,29.56,17,6,17,0.00